Time,TemperatureF,DewpointF,PressureIn,WindDirection,WindDirectionDegrees,WindSpeedMPH,WindSpeedGustMPH,Humidity,HourlyPrecipIn,Conditions,Clouds,dailyrainin,SoftwareType,DateUTC
2015-04-26 00:05:00,37.7,31.8,30.00,SSW,209,6.0,16.0,79,0.00,,,0.00,Wunderground v.1.15,2015-04-26 03:05:00,
2015-04-26 00:10:00,37.6,31.7,30.00,SW,225,5.0,16.0,79,0.00,,,0.00,Wunderground v.1.15,2015-04-26 03:10:00,
2015-04-26 00:15:00,37.6,31.7,29.99,SSW,206,5.0,16.0,79,0.00,,,0.00,Wunderground v.1.15,2015-04-26 03:15:00,
2015-04-26 00:25:00,37.5,31.6,29.99,SW,225,5.0,16.0,79,0.00,,,0.00,Wunderground v.1.15,2015-04-26 03:25:00,
2015-04-26 00:30:00,37.4,31.5,29.99,South,176,6.0,6.0,79,0.00,,,0.00,Wunderground v.1.15,2015-04-26 03:30:00,
2015-04-26 00:35:00,37.3,31.4,30.00,WSW,243,6.0,16.0,79,0.00,,,0.00,Wunderground v.1.15,2015-04-26 03:35:00,
2015-04-26 00:45:00,37.2,31.6,30.00,WSW,248,2.0,4.0,80,0.00,,,0.00,Wunderground v.1.15,2015-04-26 03:45:00,
2015-04-26 00:50:00,37.0,31.7,30.00,WSW,252,4.0,16.0,81,0.00,,,0.00,Wunderground v.1.15,2015-04-26 03:50:00,
2015-04-26 00:55:00,37.0,32.0,30.00,West,263,4.0,16.0,82,0.00,,,0.00,Wunderground v.1.15,2015-04-26 03:55:00,
2015-04-26 01:00:00,37.0,32.0,30.00,WSW,258,3.0,3.0,82,0.00,,,0.00,Wunderground v.1.15,2015-04-26 04:00:00,
2015-04-26 01:10:00,37.3,32.6,30.00,WSW,258,1.0,1.0,83,0.00,,,0.00,Wunderground v.1.15,2015-04-26 04:10:00,
2015-04-26 01:15:00,37.2,32.2,30.00,NNE,19,1.0,16.0,82,0.00,,,0.00,Wunderground v.1.15,2015-04-26 04:15:00,
2015-04-26 01:20:00,37.2,32.2,30.00,NNE,30,1.0,16.0,82,0.00,,,0.00,Wunderground v.1.15,2015-04-26 04:20:00,
2015-04-26 01:30:00,37.2,31.9,30.00,West,279,2.0,16.0,81,0.00,,,0.00,Wunderground v.1.15,2015-04-26 04:30:00,
2015-04-26 01:35:00,37.2,32.2,30.00,West,279,1.0,16.0,82,0.00,,,0.00,Wunderground v.1.15,2015-04-26 04:35:00,
2015-04-26 01:40:00,37.2,31.9,30.00,West,279,2.0,2.0,81,0.00,,,0.00,Wunderground v.1.15,2015-04-26 04:40:00,
2015-04-26 01:50:00,37.0,31.7,29.99,West,279,1.0,16.0,81,0.00,,,0.00,Wunderground v.1.15,2015-04-26 04:50:00,
2015-04-26 01:55:00,36.9,31.9,29.99,West,279,1.0,16.0,82,0.00,,,0.00,Wunderground v.1.15,2015-04-26 04:55:00,
2015-04-26 02:00:00,36.8,31.8,29.99,West,279,1.0,1.0,82,0.00,,,0.00,Wunderground v.1.15,2015-04-26 05:00:00,
2015-04-26 02:05:00,36.6,31.6,29.99,West,279,1.0,16.0,82,0.00,,,0.00,Wunderground v.1.15,2015-04-26 05:05:00,
2015-04-26 02:15:00,36.6,31.9,29.99,West,279,1.0,16.0,83,0.00,,,0.00,Wunderground v.1.15,2015-04-26 05:15:00,
2015-04-26 02:20:00,36.4,31.7,29.99,West,279,0.0,16.0,83,0.00,,,0.00,Wunderground v.1.15,2015-04-26 05:20:00,
2015-04-26 02:35:00,36.1,31.4,29.98,West,279,0.0,16.0,83,0.00,,,0.00,Wunderground v.1.15,2015-04-26 05:35:00,
2015-04-26 02:40:00,35.9,31.2,29.98,West,279,0.0,16.0,83,0.00,,,0.00,Wunderground v.1.15,2015-04-26 05:40:00,
2015-04-26 02:50:00,35.5,31.1,29.98,West,279,1.0,16.0,84,0.00,,,0.00,Wunderground v.1.15,2015-04-26 05:50:00,
2015-04-26 02:55:00,35.5,31.4,29.98,West,279,1.0,16.0,85,0.00,,,0.00,Wunderground v.1.15,2015-04-26 05:55:00,
2015-04-26 03:05:00,36.9,32.8,29.97,NNE,25,3.0,16.0,85,0.00,,,0.00,Wunderground v.1.15,2015-04-26 06:05:00,
2015-04-26 03:10:00,37.4,32.7,29.97,NNE,30,5.0,5.0,83,0.00,,,0.00,Wunderground v.1.15,2015-04-26 06:10:00,
2015-04-26 03:15:00,37.5,32.8,29.97,NNE,30,5.0,16.0,83,0.00,,,0.00,Wunderground v.1.15,2015-04-26 06:15:00,
2015-04-26 03:20:00,37.5,32.8,29.97,NE,34,5.0,16.0,83,0.00,,,0.00,Wunderground v.1.15,2015-04-26 06:20:00,
2015-04-26 03:30:00,37.4,32.4,29.97,NE,40,5.0,5.0,82,0.00,,,0.00,Wunderground v.1.15,2015-04-26 06:30:00,
2015-04-26 03:35:00,37.2,32.5,29.96,NNE,20,5.0,16.0,83,0.00,,,0.00,Wunderground v.1.15,2015-04-26 06:35:00,
2015-04-26 03:45:00,36.9,32.2,29.96,ENE,63,6.0,16.0,83,0.00,,,0.00,Wunderground v.1.15,2015-04-26 06:45:00,
2015-04-26 03:50:00,36.8,32.1,29.96,NE,37,6.0,16.0,83,0.00,,,0.00,Wunderground v.1.15,2015-04-26 06:50:00,
2015-04-26 03:55:00,36.6,31.9,29.96,ENE,59,5.0,16.0,83,0.00,,,0.00,Wunderground v.1.15,2015-04-26 06:55:00,
2015-04-26 04:05:00,36.2,31.8,29.96,NE,45,2.0,16.0,84,0.00,,,0.00,Wunderground v.1.15,2015-04-26 07:05:00,
2015-04-26 04:10:00,36.1,31.7,29.96,NE,46,3.0,16.0,84,0.00,,,0.00,Wunderground v.1.15,2015-04-26 07:10:00,
2015-04-26 04:20:00,36.3,31.6,29.96,NE,53,5.0,16.0,83,0.00,,,0.00,Wunderground v.1.15,2015-04-26 07:20:00,
2015-04-26 04:25:00,36.5,31.8,29.96,NNE,31,6.0,16.0,83,0.00,,,0.00,Wunderground v.1.15,2015-04-26 07:25:00,
2015-04-26 04:30:00,36.8,31.8,29.96,NNE,32,6.0,16.0,82,0.00,,,0.00,Wunderground v.1.15,2015-04-26 07:30:00,
2015-04-26 04:35:00,37.0,31.7,29.96,NE,37,6.0,16.0,81,0.00,,,0.00,Wunderground v.1.15,2015-04-26 07:35:00,
2015-04-26 04:45:00,37.2,31.9,29.96,NNE,30,6.0,7.0,81,0.00,,,0.00,Wunderground v.1.15,2015-04-26 07:45:00,
2015-04-26 04:50:00,37.1,31.8,29.96,NNE,32,7.0,16.0,81,0.00,,,0.00,Wunderground v.1.15,2015-04-26 07:50:00,
2015-04-26 05:00:00,37.1,31.8,29.96,NNE,23,6.0,16.0,81,0.00,,,0.00,Wunderground v.1.15,2015-04-26 08:00:00,
2015-04-26 05:05:00,37.0,31.7,29.96,NNE,32,6.0,16.0,81,0.00,,,0.00,Wunderground v.1.15,2015-04-26 08:05:00,
2015-04-26 05:10:00,37.0,31.7,29.95,NNE,30,6.0,16.0,81,0.00,,,0.00,Wunderground v.1.15,2015-04-26 08:10:00,
2015-04-26 05:15:00,37.0,31.7,29.95,NE,34,6.0,16.0,81,0.00,,,0.00,Wunderground v.1.15,2015-04-26 08:15:00,
2015-04-26 05:25:00,37.0,31.7,29.95,NE,34,6.0,16.0,81,0.00,,,0.00,Wunderground v.1.15,2015-04-26 08:25:00,
2015-04-26 05:30:00,36.9,31.6,29.95,NE,35,6.0,16.0,81,0.00,,,0.00,Wunderground v.1.15,2015-04-26 08:30:00,
2015-04-26 05:40:00,36.7,31.4,29.95,NE,48,6.0,16.0,81,0.00,,,0.00,Wunderground v.1.15,2015-04-26 08:40:00,
2015-04-26 05:45:00,36.6,31.6,29.96,NNE,30,6.0,16.0,82,0.00,,,0.00,Wunderground v.1.15,2015-04-26 08:45:00,
2015-04-26 05:50:00,36.5,31.5,29.95,NE,56,6.0,6.0,82,0.00,,,0.00,Wunderground v.1.15,2015-04-26 08:50:00,
2015-04-26 05:55:00,36.4,31.4,29.95,NE,34,6.0,16.0,82,0.00,,,0.00,Wunderground v.1.15,2015-04-26 08:55:00,
2015-04-26 06:05:00,36.4,31.4,29.96,NNE,28,7.0,8.0,82,0.00,,,0.00,Wunderground v.1.15,2015-04-26 09:05:00,
2015-04-26 06:10:00,36.3,31.3,29.96,NE,40,7.0,16.0,82,0.00,,,0.00,Wunderground v.1.15,2015-04-26 09:10:00,
2015-04-26 06:20:00,36.5,31.2,29.96,NNE,28,7.0,7.0,81,0.00,,,0.00,Wunderground v.1.15,2015-04-26 09:20:00,
2015-04-26 06:25:00,36.4,31.4,29.96,NE,44,7.0,16.0,82,0.00,,,0.00,Wunderground v.1.15,2015-04-26 09:25:00,
2015-04-26 06:30:00,36.4,31.4,29.97,NNE,27,7.0,7.0,82,0.00,,,0.00,Wunderground v.1.15,2015-04-26 09:30:00,
2015-04-26 06:40:00,36.3,31.3,29.97,NE,36,8.0,8.0,82,0.00,,,0.00,Wunderground v.1.15,2015-04-26 09:40:00,
2015-04-26 06:45:00,36.3,31.3,29.97,NE,45,8.0,16.0,82,0.00,,,0.00,Wunderground v.1.15,2015-04-26 09:45:00,
2015-04-26 06:50:00,36.3,31.3,29.97,NNE,32,8.0,16.0,82,0.00,,,0.00,Wunderground v.1.15,2015-04-26 09:50:00,
2015-04-26 07:00:00,36.4,31.4,29.97,NNE,30,9.0,16.0,82,0.00,,,0.00,Wunderground v.1.15,2015-04-26 10:00:00,
2015-04-26 07:05:00,36.2,31.2,29.97,NE,34,8.0,16.0,82,0.00,,,0.00,Wunderground v.1.15,2015-04-26 10:05:00,
2015-04-26 07:15:00,36.2,31.2,29.97,NNE,26,8.0,16.0,82,0.00,,,0.00,Wunderground v.1.15,2015-04-26 10:15:00,
2015-04-26 07:20:00,36.3,31.3,29.98,NNE,24,8.0,16.0,82,0.00,,,0.00,Wunderground v.1.15,2015-04-26 10:20:00,
2015-04-26 07:25:00,36.4,31.4,29.98,NNE,22,8.0,16.0,82,0.00,,,0.00,Wunderground v.1.15,2015-04-26 10:25:00,